Location: Drocourt
(49.0571°N, 1.7669°E)
Time: 16:42:51
(UTC+00:00)

Vanguard 3 - Pass Details

Date: 22 April 2024
Orbit: 509 x 3233 km, 33.3° (Epoch: 23 May)

Event Time Altitude Azimuth Distance (km) Brightness Sun altitude
Rises 07:12:21 0° 260° (W) 5,346 10.8 22.6°
Reaches altitude 10° 07:17:34 10° 247° (WSW) 3,777 10.1 23.4°
Maximum altitude 07:23:35 19° 206° (SSW) 2,439 9.6 24.4°
Drops below altitude 10° 07:27:55 10° 162° (SSE) 2,584 10.2 25.1°
Sets 07:30:40 0° 143° (SE) 3,223 10.9 25.5°
